Wind_Speed
9 8 6 4 3 3 2 2 2 3 5 6 9 9 8 8 8 10 12 12 11 10 9 8 8 8 7 7 7 7 7 6 6 5 5 5 5 5 4 3 3 3 3 3
9 7 6 4 3 2 3 2 1 3 3 6 8 6 7 8 7 7 9 9 10 10 9 9 8 8 8 7 7 6 6 6 6 6 5 5 5 4 4 4 4 3 3 3
9 7 6 5 3 3 4 2 1 3 3 5 6 5 6 7 7 6 7 8 8 8 9 9 9 8 7 6 5 6 6 6 6 6 5 5 5 4 4 3 3 3 3 3
9 8 7 6 4 3 3 3 3 4 5 5 5 6 5 6 6 6 6 7 7 8 8 7 7 7 6 5 4 5 5 6 6 5 6 5 5 4 4 4 4 4 4 4
10 10 8 7 5 5 4 4 4 5 6 5 5 6 5 6 5 6 6 5 6 6 7 7 5 5 6 5 5 5 5 5 5 6 5 5 4 4 4 4 4 4 5 5
12 11 10 7 6 6 6 7 6 6 7 6 6 6 5 6 6 6 6 5 5 5 6 6 6 6 5 5 5 5 5 5 5 5 5 5 4 4 4 4 5 5 6 7
13 12 10 9 8 7 8 9 9 9 9 8 8 8 8 8 8 8 7 6 5 6 6 6 6 6 5 6 6 5 5 5 5 6 6 5 5 5 5 6 6 7 8 9
13 13 12 11 10 9 9 9 11 11 10 9 10 11 10 10 9 8 7 7 6 6 7 6 5 5 5 7 7 6 7 6 6 7 7 7 7 7 8 8 8 9 10 11
15 14 14 14 13 11 12 12 12 13 13 13 13 13 11 11 10 8 7 8 8 7 7 7 7 7 7 7 8 8 8 8 8 8 8 8 9 9 10 10 11 12 12 13
18 17 16 16 16 14 14 15 15 15 16 16 16 14 13 12 10 11 10 9 10 9 8 9 10 10 9 9 10 9 10 10 10 11 10 10 10 10 11 12 12 14 15 15
19 19 18 18 18 18 17 17 16 16 17 18 18 17 15 14 13 13 12 12 12 11 10 11 11 10 11 11 11 10 11 12 13 12 13 12 12 12 12 13 14 15 16 16
21 21 20 20 19 20 19 18 18 18 18 19 21 20 17 17 16 16 16 15 14 13 12 12 13 14 14 13 13 12 13 14 14 14 15 15 15 14 14 14 15 16 17 17
22 22 22 22 22 22 22 21 20 20 19 20 22 22 20 20 19 18 18 18 17 17 16 15 15 15 15 14 14 15 15 15 15 15 16 16 17 17 17 17 17 18 19 19
22 23 23 23 24 25 25 24 23 22 22 22 22 22 22 21 21 20 20 20 21 20 18 17 17 18 17 17 17 17 17 17 17 17 17 17 17 18 18 19 19 19 19 20
23 23 23 24 25 26 26 25 24 24 25 24 23 23 23 23 22 23 23 24 23 22 21 21 20 19 19 19 19 19 19 19 19 19 19 19 19 19 19 20 20 20 20 21
24 24 24 25 25 26 27 26 25 25 26 26 26 26 25 25 25 26 26 26 26 25 24 23 23 22 21 22 22 22 22 21 22 22 21 21 20 21 21 22 22 22 22 23
25 25 25 24 25 26 25 25 25 24 24 25 26 26 26 27 27 28 28 27 29 29 28 26 25 24 24 24 24 25 25 25 25 24 23 23 23 23 24 24 24 24 25 25
24 25 25 26 26 26 23 24 24 25 25 25 26 28 28 28 28 28 29 29 29 29 28 28 28 28 27 27 26 26 25 25 25 24 25 25 25 25 26 26 26 27 27 27
25 26 26 26 26 27 24 24 24 24 24 25 26 28 29 29 29 30 30 30 30 29 29 29 29 29 28 27 27 27 27 26 26 26 26 25 25 26 27 28 28 28 28 28
25 25 25 25 26 27 25 24 25 25 25 25 26 27 28 28 29 30 30 30 30 30 30 30 29 28 28 29 29 28 28 27 27 28 29 29 28 28 29 29 30 30 30 29
24 25 25 25 25 26 24 24 24 26 26 26 27 27 28 28 29 29 29 30 30 29 29 30 30 30 30 30 30 29 29 29 29 30 30 30 31 31 31 32 32 32 31 31
25 26 26 26 27 26 25 25 25 25 26 27 28 28 29 29 30 30 30 30 30 30 30 30 31 31 31 30 29 30 30 31 32 32 31 32 32 32 33 33 33 33 33 33
27 27 27 27 27 26 25 25 25 26 26 27 28 29 29 29 29 30 30 31 30 30 32 32 32 30 31 32 31 30 30 31 32 32 32 33 33 34 34 34 33 33 34 34
27 28 28 28 27 27 26 25 26 26 27 28 29 29 29 29 29 29 30 31 31 32 32 32 31 31 31 31 31 31 31 31 32 33 33 34 34 34 35 35 34 34 34 35
28 28 28 28 28 28 26 25 26 27 28 28 27 27 28 29 30 30 31 31 32 32 31 32 31 30 31 31 31 31 31 32 32 33 33 34 35 36 36 36 36 35 35 35
27 28 28 28 28 27 26 26 26 27 27 28 28 28 28 28 29 30 31 31 31 31 31 31 31 32 32 31 31 32 32 32 32 32 33 35 36 37 37 37 37 36 37 37
Wind_Direction
173 175 172 157 127 106 105 105 69 31 32 22 10 2 12 30 35 34 32 34 40 48 48 50 55 53 50 48 47 45 47 48 51 49 45 41 39 42 42 39 36 27 22 25
181 174 164 162 166 148 185 175 33 16 18 8 3 6 14 20 23 31 32 38 42 46 49 49 48 48 50 52 51 48 48 46 46 44 41 37 30 35 33 40 36 31 26 14
189 178 173 183 189 166 177 215 295 315 323 350 347 4 16 15 14 22 23 34 35 37 41 44 45 44 46 49 49 42 34 32 33 38 37 32 31 27 27 30 20 15 5 353
191 185 185 193 202 220 203 226 259 277 289 302 309 326 351 2 10 10 10 20 22 26 26 31 35 37 36 33 29 29 20 19 23 24 19 24 25 18 18 15 3 358 352 343
196 194 195 198 208 220 228 240 249 260 274 270 272 296 317 337 352 352 353 355 1 10 7 7 11 22 24 20 13 11 9 10 11 7 5 10 12 8 6 3 354 345 338 335
206 206 208 210 214 223 232 234 237 245 254 251 269 284 290 314 321 323 327 339 347 348 349 353 356 359 12 15 12 2 358 358 355 356 356 360 359 350 345 341 334 328 325 322
211 208 206 212 219 227 235 238 237 245 256 258 266 276 281 294 306 313 312 317 325 333 333 338 347 357 5 359 350 344 339 334 333 335 337 334 328 322 319 320 320 320 317 316
218 212 208 210 222 232 236 241 244 254 263 267 269 278 277 285 290 297 304 305 298 309 309 309 315 328 342 338 333 324 320 318 316 317 319 315 314 313 308 305 306 309 308 307
227 221 220 219 222 233 240 241 245 250 258 266 268 273 270 277 277 286 292 305 298 299 303 299 300 307 316 323 320 316 310 311 303 303 304 307 308 305 302 300 299 299 301 302
230 228 222 223 224 230 240 246 249 247 253 264 265 270 272 271 272 277 283 293 294 299 300 300 300 304 306 312 311 307 303 301 306 298 297 303 304 300 299 297 296 297 300 301
237 236 231 225 226 231 236 241 247 252 257 263 267 271 272 271 270 271 275 284 284 288 294 296 294 300 304 305 306 306 303 300 301 300 300 301 301 301 301 300 298 297 297 298
242 241 235 229 231 233 237 242 249 254 257 262 267 272 273 272 274 271 273 276 281 283 288 287 288 292 294 298 300 302 300 298 296 296 297 297 300 302 301 301 299 297 296 296
245 245 237 232 234 234 235 241 247 252 256 260 265 271 271 271 277 278 276 278 279 282 285 285 284 284 289 294 294 294 293 294 294 294 293 294 295 297 297 298 298 298 296 296
247 248 242 239 236 236 237 239 244 248 252 258 264 269 271 273 276 277 275 276 277 279 280 282 285 284 287 288 288 288 287 289 289 289 289 290 292 292 293 296 297 296 297 296
250 248 244 243 241 240 241 243 246 248 251 256 261 266 267 269 273 278 276 275 276 277 280 282 282 283 284 284 283 284 284 284 285 283 285 287 288 289 291 294 295 294 295 295
249 248 246 245 244 244 246 246 249 251 253 256 259 262 265 270 272 276 278 278 276 275 276 279 281 283 283 282 280 281 282 282 281 280 281 284 285 286 290 292 293 293 293 293
250 251 250 248 246 246 248 248 248 249 253 256 258 261 265 268 272 277 279 279 279 277 277 278 279 281 280 281 281 281 281 280 280 280 281 282 283 286 288 291 292 292 293 294
252 253 252 251 249 250 250 250 251 252 255 257 259 261 263 267 271 275 278 280 280 278 277 278 280 280 280 279 277 278 281 281 280 281 284 285 285 287 288 290 292 292 293 294
252 253 253 251 250 251 249 252 253 253 256 259 261 263 264 267 271 275 277 279 279 282 281 282 282 281 279 278 278 281 281 279 278 280 282 285 285 286 288 290 291 293 293 293
251 253 255 254 254 252 251 252 254 258 261 262 263 265 267 270 272 274 276 278 279 280 281 282 283 282 280 279 278 277 277 277 278 280 282 283 285 287 288 290 292 293 292 292
249 251 253 255 256 256 254 255 257 260 265 267 266 267 268 269 272 273 275 278 281 281 280 281 283 284 282 281 277 275 277 276 277 280 282 282 284 285 287 289 291 291 290 289
252 252 253 256 258 259 258 259 258 260 264 267 268 268 269 270 271 273 276 278 281 281 280 281 283 282 281 280 280 279 278 278 279 280 281 282 284 284 286 288 289 289 290 290
252 254 254 257 261 264 262 260 258 260 262 266 269 270 269 270 271 273 275 278 281 283 282 281 282 282 281 280 280 281 279 278 278 278 279 281 284 286 287 287 288 288 289 290
252 254 256 257 260 262 261 262 262 262 263 267 269 271 271 270 271 273 275 278 279 281 282 281 282 282 280 281 280 280 280 279 278 280 280 282 284 286 286 286 287 288 289 290
253 254 256 259 263 264 261 262 263 263 264 265 267 270 272 273 274 275 277 279 281 281 280 280 282 281 280 281 281 281 281 279 279 281 282 282 284 284 285 286 288 289 289 290
253 254 257 260 264 265 264 265 266 267 267 268 270 271 275 275 275 276 278 281 281 282 283 281 281 280 280 280 282 282 282 282 281 281 283 284 284 284 285 286 287 288 290 291
Height
5928 5930 5930 5930 5930 5931 5931 5931 5931 5932 5931 5931 5930 5929 5928 5927 5925 5924 5923 5922 5920 5920 5919 5918 5917 5916 5916 5915 5914 5914 5913 5912 5911 5911 5910 5910 5909 5909 5908 5907 5907 5906 5905 5904
5928 5929 5930 5930 5930 5930 5931 5931 5931 5931 5931 5931 5930 5930 5929 5927 5926 5925 5924 5923 5922 5921 5920 5919 5918 5917 5916 5915 5915 5915 5914 5913 5912 5911 5910 5910 5909 5909 5908 5907 5906 5905 5905 5904
5926 5928 5928 5928 5929 5929 5930 5931 5931 5931 5930 5930 5930 5930 5929 5928 5927 5926 5924 5924 5923 5922 5921 5920 5919 5918 5917 5916 5916 5915 5914 5913 5912 5911 5910 5910 5909 5908 5908 5907 5906 5905 5904 5903
5924 5926 5926 5927 5928 5929 5929 5930 5931 5930 5930 5930 5931 5930 5929 5927 5926 5925 5924 5924 5923 5922 5922 5920 5919 5918 5917 5917 5916 5915 5914 5913 5912 5911 5910 5910 5909 5908 5907 5906 5905 5904 5903 5902
5922 5924 5924 5925 5927 5927 5928 5929 5930 5929 5929 5928 5929 5929 5929 5927 5926 5925 5924 5924 5923 5922 5922 5920 5919 5918 5918 5917 5916 5915 5914 5913 5912 5911 5910 5909 5908 5907 5906 5905 5904 5903 5902 5901
5920 5921 5923 5924 5925 5926 5926 5927 5928 5928 5928 5928 5928 5928 5928 5926 5926 5925 5924 5923 5922 5921 5921 5920 5919 5918 5917 5917 5916 5915 5914 5913 5912 5911 5909 5908 5907 5906 5905 5904 5903 5902 5900 5899
5918 5919 5921 5922 5923 5924 5925 5926 5926 5926 5926 5926 5926 5925 5926 5925 5924 5923 5922 5921 5920 5920 5920 5919 5918 5917 5916 5916 5915 5914 5913 5912 5911 5909 5908 5907 5906 5905 5903 5902 5901 5900 5899 5897
5915 5917 5918 5919 5920 5921 5922 5923 5924 5924 5923 5923 5923 5923 5924 5923 5922 5921 5920 5919 5919 5918 5918 5917 5916 5915 5915 5914 5913 5913 5911 5910 5909 5908 5906 5905 5904 5902 5901 5900 5899 5898 5896 5895
5911 5914 5916 5916 5917 5918 5920 5920 5920 5921 5920 5920 5920 5920 5921 5920 5919 5918 5917 5917 5916 5916 5916 5915 5914 5913 5912 5911 5910 5910 5909 5907 5906 5905 5904 5902 5901 5900 5899 5897 5896 5894 5893 5891
5907 5910 5912 5913 5914 5915 5916 5917 5917 5917 5916 5916 5916 5917 5917 5917 5916 5915 5914 5914 5914 5913 5912 5912 5911 5910 5909 5909 5907 5906 5906 5904 5903 5901 5900 5899 5898 5897 5895 5894 5893 5891 5889 5888
5903 5905 5908 5909 5910 5910 5912 5912 5913 5913 5912 5912 5912 5914 5913 5914 5913 5912 5912 5912 5911 5911 5910 5910 5908 5907 5907 5906 5905 5903 5902 5901 5900 5899 5897 5896 5895 5893 5892 5890 5889 5887 5885 5883
5898 5900 5902 5904 5906 5906 5907 5907 5908 5909 5909 5909 5908 5911 5909 5909 5909 5908 5908 5908 5907 5907 5907 5906 5905 5904 5903 5902 5901 5900 5899 5898 5897 5896 5894 5893 5892 5890 5888 5886 5885 5883 5881 5879
5893 5895 5897 5899 5902 5902 5902 5902 5903 5904 5904 5904 5904 5907 5905 5905 5905 5905 5904 5904 5903 5903 5902 5902 5901 5900 5899 5898 5897 5897 5895 5894 5893 5891 5890 5889 5887 5886 5884 5882 5880 5878 5876 5874
5888 5889 5891 5894 5895 5895 5896 5897 5898 5899 5899 5899 5899 5900 5900 5900 5901 5900 5900 5899 5898 5898 5897 5897 5896 5895 5894 5894 5893 5892 5891 5890 5888 5887 5885 5884 5882 5880 5879 5877 5875 5873 5871 5869
5882 5883 5885 5887 5888 5889 5890 5892 5893 5893 5893 5894 5894 5895 5895 5895 5895 5895 5895 5894 5894 5893 5892 5892 5891 5890 5889 5888 5888 5887 5885 5884 5883 5881 5880 5878 5876 5875 5873 5871 5870 5868 5866 5863
5875 5877 5879 5881 5882 5883 5884 5885 5886 5887 5887 5888 5888 5889 5889 5889 5889 5889 5889 5889 5888 5887 5887 5886 5885 5884 5882 5882 5881 5880 5879 5878 5876 5875 5873 5872 5870 5869 5867 5865 5863 5861 5859 5857
5869 5871 5873 5874 5875 5876 5878 5879 5879 5880 5880 5882 5882 5883 5882 5882 5882 5882 5882 5882 5881 5880 5879 5879 5879 5877 5876 5875 5874 5873 5872 5871 5870 5868 5867 5866 5864 5862 5861 5859 5857 5854 5852 5850
5863 5864 5866 5868 5870 5870 5874 5873 5873 5873 5874 5874 5875 5875 5876 5876 5876 5875 5874 5873 5873 5872 5871 5871 5871 5870 5869 5867 5866 5865 5864 5863 5862 5861 5860 5859 5857 5855 5853 5851 5849 5847 5844 5842
5857 5858 5860 5861 5862 5863 5866 5867 5866 5866 5867 5868 5868 5868 5869 5869 5868 5868 5867 5866 5866 5865 5865 5864 5863 5862 5861 5860 5858 5857 5856 5855 5855 5853 5852 5850 5849 5848 5846 5843 5841 5839 5836 5834
5850 5851 5853 5854 5855 5856 5861 5860 5860 5861 5860 5861 5861 5862 5861 5861 5861 5861 5860 5859 5858 5858 5857 5856 5855 5853 5853 5852 5851 5849 5848 5847 5846 5845 5844 5843 5841 5840 5837 5835 5832 5830 5827 5825
5843 5845 5846 5847 5847 5849 5853 5853 5854 5855 5855 5855 5854 5854 5854 5854 5853 5853 5852 5851 5850 5849 5848 5847 5846 5845 5845 5843 5842 5841 5839 5838 5837 5837 5835 5834 5832 5831 5829 5826 5824 5821 5818 5816
5837 5838 5839 5840 5841 5844 5845 5846 5847 5847 5847 5847 5846 5846 5846 5846 5845 5844 5843 5842 5841 5840 5839 5838 5837 5836 5835 5835 5833 5832 5831 5829 5829 5827 5826 5825 5823 5821 5819 5816 5814 5811 5809 5806
5829 5831 5832 5833 5835 5836 5838 5838 5839 5839 5839 5839 5838 5838 5837 5837 5836 5836 5835 5834 5833 5831 5830 5829 5828 5827 5826 5825 5824 5823 5821 5820 5819 5817 5816 5815 5813 5811 5809 5806 5804 5802 5799 5796
5823 5823 5824 5825 5826 5828 5829 5830 5831 5831 5831 5831 5830 5830 5830 5829 5828 5827 5827 5826 5825 5823 5822 5820 5819 5817 5817 5816 5815 5813 5812 5810 5809 5808 5806 5805 5803 5801 5799 5796 5794 5791 5789 5786
5816 5816 5817 5818 5819 5820 5821 5822 5822 5822 5823 5822 5822 5822 5821 5821 5820 5819 5818 5816 5815 5814 5813 5811 5809 5808 5807 5806 5805 5803 5801 5800 5798 5797 5796 5794 5793 5791 5788 5786 5784 5781 5778 5775
5809 5810 5810 5811 5812 5812 5813 5814 5814 5814 5814 5814 5814 5814 5813 5812 5811 5810 5808 5807 5805 5804 5803 5802 5800 5799 5798 5796 5795 5793 5791 5790 5788 5787 5786 5784 5782 5780 5778 5775 5773 5770 5768 5765